| time (UTC) | temp C | wind direction | speed KPH | gust KPH | rain 1hr cm | rain 24hr cm | rain mn cm | humidity % | barometer mb |
| 20260510071938 | 22 | 351 | 4.8 | 14.5 | 0.00 | 0.00 | 0.00 | 40 | 1025.2 |
| 20260510071434 | 22 | 259 | 8.0 | 17.7 | 0.00 | 0.00 | 0.00 | 39 | 1025.2 |
| 20260510070933 | 23 | 254 | 4.8 | 9.7 | 0.00 | 0.00 | 0.00 | 39 | 1025.3 |
| 20260510070430 | 23 | 275 | 4.8 | 12.9 | 0.00 | 0.00 | 0.00 | 38 | 1025.4 |
| 20260510065925 | 23 | 282 | 9.7 | 11.3 | 0.00 | 0.00 | 0.00 | 39 | 1025.5 |
| 20260510065422 | 23 | 38 | 12.9 | 16.1 | 0.00 | 0.00 | 0.00 | 32 | 1025.4 |
| 20260510064918 | 23 | 7 | 11.3 | 17.7 | 0.00 | 0.00 | 0.00 | 32 | 1025.6 |
| 20260510064416 | 23 | 38 | 11.3 | 16.1 | 0.00 | 0.00 | 0.00 | 33 | 1025.2 |
| 20260510063912 | 23 | 76 | 8.0 | 14.5 | 0.00 | 0.00 | 0.00 | 33 | 1025.3 |
| 20260510063408 | 23 | 38 | 16.1 | 20.9 | 0.00 | 0.00 | 0.00 | 33 | 1025.3 |
| 20260510062907 | 23 | 45 | 12.9 | 16.1 | 0.00 | 0.00 | 0.00 | 33 | 1025.3 |
| 20260510062401 | 23 | 64 | 3.2 | 19.3 | 0.00 | 0.00 | 0.00 | 33 | 1025.3 |
| 20260510061857 | 23 | 85 | 8.0 | 14.5 | 0.00 | 0.00 | 0.00 | 33 | 1025.3 |
| 20260510061354 | 23 | 31 | 11.3 | 22.5 | 0.00 | 0.00 | 0.00 | 33 | 1025.4 |
| 20260510060849 | 23 | 39 | 19.3 | 25.7 | 0.00 | 0.00 | 0.00 | 33 | 1025.5 |
| 20260510060347 | 23 | 33 | 19.3 | 20.9 | 0.00 | 0.00 | 0.00 | 33 | 1025.5 |
| 20260510055843 | 23 | 71 | 12.9 | 25.7 | 0.00 | 0.00 | 0.00 | 32 | 1025.8 |
| 20260510055343 | 23 | 16 | 9.7 | 16.1 | 0.00 | 0.00 | 0.00 | 34 | 1025.8 |
| 20260510054842 | 23 | 27 | 12.9 | 14.5 | 0.00 | 0.00 | 0.00 | 34 | 1025.8 |
| 20260510054338 | 23 | 0 | 8.0 | 12.9 | 0.00 | 0.00 | 0.00 | 33 | 1025.9 |
| 20260510053833 | 23 | 38 | 11.3 | 16.1 | 0.00 | 0.00 | 0.00 | 33 | 1025.9 |
| 20260510053328 | 23 | 15 | 6.4 | 17.7 | 0.00 | 0.00 | 0.00 | 32 | 1025.9 |
| 20260510052825 | 23 | 0 | 11.3 | 11.3 | 0.00 | 0.00 | 0.00 | 32 | 1026.0 |
| 20260510052321 | 23 | 23 | 12.9 | 17.7 | 0.00 | 0.00 | 0.00 | 33 | 1026.0 |
| 20260510051818 | 23 | 6 | 11.3 | 20.9 | 0.00 | 0.00 | 0.00 | 34 | 1026.1 |
| 20260510051314 | 23 | 87 | 3.2 | 8.0 | 0.00 | 0.00 | 0.00 | 34 | 1026.2 |
| 20260510050811 | 23 | 12 | 11.3 | 16.1 | 0.00 | 0.00 | 0.00 | 34 | 1026.2 |
| 20260510050308 | 23 | 45 | 14.5 | 16.1 | 0.00 | 0.00 | 0.00 | 33 | 1026.4 |
| 20260510045805 | 23 | 47 | 9.7 | 14.5 | 0.00 | 0.00 | 0.00 | 35 | 1026.5 |
| 20260510045305 | 23 | 1 | 11.3 | 20.9 | 0.00 | 0.00 | 0.00 | 35 | 1026.6 |
| 20260510044759 | 22 | 46 | 12.9 | 17.7 | 0.00 | 0.00 | 0.00 | 35 | 1026.5 |
| 20260510044256 | 22 | 25 | 8.0 | 17.7 | 0.00 | 0.00 | 0.00 | 34 | 1026.7 |
| 20260510043752 | 22 | 351 | 17.7 | 19.3 | 0.00 | 0.00 | 0.00 | 34 | 1026.5 |
| 20260510043248 | 22 | 334 | 14.5 | 20.9 | 0.00 | 0.00 | 0.00 | 35 | 1026.6 |
| 20260510042746 | 22 | 27 | 16.1 | 19.3 | 0.00 | 0.00 | 0.00 | 35 | 1026.7 |
| 20260510042241 | 22 | 13 | 12.9 | 16.1 | 0.00 | 0.00 | 0.00 | 35 | 1026.9 |
| 20260510041739 | 22 | 44 | 14.5 | 24.1 | 0.00 | 0.00 | 0.00 | 36 | 1026.9 |
| 20260510041236 | 22 | 43 | 16.1 | 24.1 | 0.00 | 0.00 | 0.00 | 36 | 1027.0 |
| 20260510040733 | 22 | 28 | 17.7 | 25.7 | 0.00 | 0.00 | 0.00 | 37 | 1027.2 |
| 20260510040230 | 22 | 13 | 12.9 | 25.7 | 0.00 | 0.00 | 0.00 | 37 | 1027.3 |
| 20260510035724 | 22 | 32 | 11.3 | 22.5 | 0.00 | 0.00 | 0.00 | 38 | 1027.3 |
| 20260510035221 | 22 | 357 | 12.9 | 24.1 | 0.00 | 0.00 | 0.00 | 37 | 1027.4 |
| 20260510034717 | 22 | 19 | 12.9 | 14.5 | 0.00 | 0.00 | 0.00 | 38 | 1027.3 |
| 20260510034215 | 21 | 38 | 17.7 | 22.5 | 0.00 | 0.00 | 0.00 | 40 | 1027.6 |
| 20260510033710 | 22 | 28 | 11.3 | 17.7 | 0.00 | 0.00 | 0.00 | 39 | 1027.7 |
| 20260510033209 | 21 | 36 | 22.5 | 24.1 | 0.00 | 0.00 | 0.00 | 40 | 1027.7 |
| 20260510032705 | 21 | 19 | 22.5 | 24.1 | 0.00 | 0.00 | 0.00 | 40 | 1027.6 |
| 20260510032200 | 21 | 31 | 11.3 | 22.5 | 0.00 | 0.00 | 0.00 | 41 | 1027.6 |
| 20260510031655 | 21 | 43 | 16.1 | 22.5 | 0.00 | 0.00 | 0.00 | 41 | 1027.9 |
| 20260510031153 | 21 | 39 | 8.0 | 16.1 | 0.00 | 0.00 | 0.00 | 42 | 1027.9 |
| 20260510030652 | 21 | 23 | 14.5 | 19.3 | 0.00 | 0.00 | 0.00 | 41 | 1027.8 |
| 20260510030150 | 21 | 54 | 22.5 | 27.4 | 0.00 | 0.00 | 0.00 | 42 | 1027.8 |
| 20260510025647 | 21 | 51 | 14.5 | 17.7 | 0.00 | 0.00 | 0.00 | 42 | 1027.7 |
| 20260510025144 | 20 | 39 | 14.5 | 22.5 | 0.00 | 0.00 | 0.00 | 43 | 1027.8 |
| 20260510024641 | 20 | 21 | 17.7 | 24.1 | 0.00 | 0.00 | 0.00 | 44 | 1027.9 |
| 20260510024137 | 20 | 33 | 9.7 | 25.7 | 0.00 | 0.00 | 0.00 | 43 | 1027.9 |
| 20260510023633 | 20 | 28 | 19.3 | 25.7 | 0.00 | 0.00 | 0.00 | 44 | 1028.0 |
| 20260510023131 | 20 | 31 | 14.5 | 32.2 | 0.00 | 0.00 | 0.00 | 44 | 1028.2 |
| 20260510022631 | 20 | 60 | 11.3 | 22.5 | 0.00 | 0.00 | 0.00 | 45 | 1028.2 |
| 20260510022126 | 20 | 51 | 14.5 | 19.3 | 0.00 | 0.00 | 0.00 | 45 | 1028.2 |
| 20260510021621 | 20 | 26 | 17.7 | 25.7 | 0.00 | 0.00 | 0.00 | 45 | 1028.4 |
| 20260510021120 | 20 | 34 | 20.9 | 22.5 | 0.00 | 0.00 | 0.00 | 47 | 1028.3 |
| 20260510020613 | 19 | 59 | 14.5 | 20.9 | 0.00 | 0.00 | 0.00 | 48 | 1028.6 |
| 20260510020109 | 19 | 39 | 17.7 | 22.5 | 0.00 | 0.00 | 0.00 | 47 | 1028.3 |
| 20260510015605 | 19 | 56 | 12.9 | 20.9 | 0.00 | 0.00 | 0.00 | 48 | 1028.4 |
| 20260510015102 | 19 | 33 | 14.5 | 19.3 | 0.00 | 0.00 | 0.00 | 49 | 1028.5 |
| 20260510014558 | 18 | 45 | 9.7 | 20.9 | 0.00 | 0.00 | 0.00 | 49 | 1028.5 |
| 20260510014055 | 18 | 23 | 14.5 | 19.3 | 0.00 | 0.00 | 0.00 | 50 | 1028.5 |
| 20260510013549 | 18 | 36 | 14.5 | 20.9 | 0.00 | 0.00 | 0.00 | 50 | 1028.5 |
| 20260510013045 | 18 | 62 | 12.9 | 24.1 | 0.00 | 0.00 | 0.00 | 50 | 1028.6 |
| 20260510012539 | 17 | 43 | 12.9 | 22.5 | 0.00 | 0.00 | 0.00 | 51 | 1028.6 |
| 20260510012036 | 17 | 34 | 11.3 | 25.7 | 0.00 | 0.00 | 0.00 | 52 | 1028.7 |
| 20260510011536 | 17 | 38 | 17.7 | 24.1 | 0.00 | 0.00 | 0.00 | 52 | 1028.6 |
| 20260510011032 | 17 | 42 | 20.9 | 22.5 | 0.00 | 0.00 | 0.00 | 52 | 1028.6 |
| 20260510010528 | 17 | 31 | 14.5 | 19.3 | 0.00 | 0.00 | 0.00 | 53 | 1028.6 |
| 20260510010026 | 17 | 33 | 12.9 | 20.9 | 0.00 | 0.00 | 0.00 | 53 | 1028.7 |
| 20260510005521 | 16 | 40 | 17.7 | 20.9 | 0.00 | 0.00 | 0.00 | 53 | 1028.6 |
| 20260510005019 | 16 | 92 | 14.5 | 17.7 | 0.00 | 0.00 | 0.00 | 53 | 1028.7 |
| 20260510004516 | 16 | 52 | 17.7 | 22.5 | 0.00 | 0.00 | 0.00 | 54 | 1028.7 |
| 20260510004015 | 16 | 42 | 11.3 | 12.9 | 0.00 | 0.00 | 0.00 | 54 | 1028.6 |
| 20260510003510 | 16 | 47 | 12.9 | 22.5 | 0.00 | 0.00 | 0.00 | 55 | 1028.7 |
| 20260510003006 | 16 | 45 | 17.7 | 20.9 | 0.00 | 0.00 | 0.00 | 55 | 1028.8 |
| 20260510002502 | 16 | 72 | 9.7 | 20.9 | 0.00 | 0.00 | 0.00 | 56 | 1028.9 |
| 20260510001959 | 15 | 58 | 12.9 | 20.9 | 0.00 | 0.00 | 0.00 | 56 | 1028.6 |
| 20260510001456 | 15 | 58 | 9.7 | 17.7 | 0.00 | 0.00 | 0.00 | 56 | 1028.5 |
| 20260510000954 | 15 | 53 | 9.7 | 16.1 | 0.00 | 0.00 | 0.00 | 57 | 1028.5 |
| 20260510000449 | 15 | 59 | 14.5 | 20.9 | 0.00 | 0.00 | 0.00 | 57 | 1028.3 |
| 20260509235946 | 15 | 28 | 11.3 | 16.1 | 0.00 | 0.00 | 0.00 | 58 | 1028.3 |
| 20260509235443 | 15 | 50 | 11.3 | 17.7 | 0.00 | 0.00 | 0.00 | 58 | 1028.3 |
| 20260509234940 | 14 | 41 | 14.5 | 20.9 | 0.00 | 0.00 | 0.00 | 59 | 1028.3 |
| 20260509234436 | 14 | 63 | 14.5 | 22.5 | 0.00 | 0.00 | 0.00 | 59 | 1028.3 |
| 20260509233934 | 14 | 49 | 6.4 | 12.9 | 0.00 | 0.00 | 0.00 | 59 | 1028.2 |
| 20260509233432 | 13 | 66 | 14.5 | 19.3 | 0.00 | 0.00 | 0.00 | 60 | 1028.2 |
| 20260509232927 | 13 | 41 | 12.9 | 17.7 | 0.00 | 0.00 | 0.00 | 60 | 1028.2 |
| 20260509232425 | 13 | 63 | 11.3 | 14.5 | 0.00 | 0.00 | 0.00 | 61 | 1028.3 |
| 20260509231921 | 13 | 59 | 12.9 | 14.5 | 0.00 | 0.00 | 0.00 | 61 | 1028.2 |
| 20260509231418 | 13 | 65 | 11.3 | 14.5 | 0.00 | 0.00 | 0.00 | 62 | 1028.2 |
| 20260509230916 | 13 | 42 | 9.7 | 16.1 | 0.00 | 0.00 | 0.00 | 62 | 1028.4 |
| 20260509230412 | 13 | 60 | 8.0 | 14.5 | 0.00 | 0.00 | 0.00 | 62 | 1028.1 |
| 20260509225908 | 13 | 53 | 11.3 | 12.9 | 0.00 | 0.00 | 0.00 | 62 | 1028.2 |
| 20260509225405 | 13 | 61 | 9.7 | 12.9 | 0.00 | 0.00 | 0.00 | 62 | 1028.2 |
| 20260509224901 | 13 | 73 | 12.9 | 14.5 | 0.00 | 0.00 | 0.00 | 62 | 1028.0 |
| 20260509224357 | 13 | 74 | 9.7 | 16.1 | 0.00 | 0.00 | 0.00 | 62 | 1028.0 |
| 20260509223855 | 13 | 58 | 9.7 | 11.3 | 0.00 | 0.00 | 0.00 | 62 | 1028.2 |
| 20260509223350 | 13 | 58 | 12.9 | 14.5 | 0.00 | 0.00 | 0.00 | 62 | 1028.2 |
| 20260509222849 | 13 | 56 | 16.1 | 17.7 | 0.00 | 0.00 | 0.00 | 62 | 1028.2 |
| 20260509222349 | 13 | 68 | 9.7 | 14.5 | 0.00 | 0.00 | 0.00 | 62 | 1028.2 |
| 20260509221844 | 13 | 44 | 8.0 | 12.9 | 0.00 | 0.00 | 0.00 | 62 | 1028.1 |
| 20260509221342 | 13 | 58 | 11.3 | 12.9 | 0.00 | 0.00 | 0.00 | 62 | 1028.0 |
| 20260509220843 | 13 | 49 | 12.9 | 14.5 | 0.00 | 0.00 | 0.00 | 62 | 1028.1 |
| 20260509220339 | 13 | 57 | 8.0 | 12.9 | 0.00 | 0.00 | 0.00 | 62 | 1027.9 |
| 20260509215834 | 13 | 60 | 11.3 | 12.9 | 0.00 | 0.00 | 0.00 | 61 | 1027.9 |
| 20260509215331 | 13 | 69 | 6.4 | 14.5 | 0.00 | 0.00 | 0.00 | 61 | 1027.9 |
| 20260509214828 | 13 | 56 | 11.3 | 14.5 | 0.00 | 0.00 | 0.00 | 61 | 1027.9 |
| 20260509214325 | 13 | 59 | 8.0 | 9.7 | 0.00 | 0.00 | 0.00 | 61 | 1027.8 |
| 20260509213823 | 13 | 43 | 11.3 | 14.5 | 0.00 | 0.00 | 0.00 | 60 | 1027.8 |
| 20260509213318 | 13 | 62 | 12.9 | 16.1 | 0.00 | 0.00 | 0.00 | 60 | 1027.6 |
| 20260509212816 | 13 | 59 | 11.3 | 16.1 | 0.00 | 0.00 | 0.00 | 60 | 1027.7 |
| 20260509212313 | 13 | 56 | 8.0 | 14.5 | 0.00 | 0.00 | 0.00 | 60 | 1027.5 |
| 20260509211809 | 13 | 42 | 14.5 | 14.5 | 0.00 | 0.00 | 0.00 | 60 | 1027.6 |
| 20260509211305 | 13 | 58 | 9.7 | 17.7 | 0.00 | 0.00 | 0.00 | 60 | 1027.5 |
| 20260509210801 | 13 | 46 | 12.9 | 14.5 | 0.00 | 0.00 | 0.00 | 59 | 1027.6 |
| 20260509210259 | 13 | 39 | 8.0 | 16.1 | 0.00 | 0.00 | 0.00 | 59 | 1027.7 |
| 20260509205759 | 13 | 58 | 6.4 | 16.1 | 0.00 | 0.00 | 0.00 | 59 | 1027.4 |
| 20260509205254 | 13 | 68 | 8.0 | 17.7 | 0.00 | 0.00 | 0.00 | 59 | 1027.3 |
| 20260509204750 | 13 | 28 | 11.3 | 14.5 | 0.00 | 0.00 | 0.00 | 60 | 1027.1 |
| 20260509204246 | 13 | 45 | 8.0 | 12.9 | 0.00 | 0.00 | 0.00 | 60 | 1027.3 |
| 20260509203742 | 13 | 60 | 8.0 | 11.3 | 0.00 | 0.00 | 0.00 | 60 | 1027.2 |
| 20260509203241 | 12 | 57 | 11.3 | 12.9 | 0.00 | 0.00 | 0.00 | 61 | 1027.2 |
| 20260509202736 | 12 | 51 | 6.4 | 9.7 | 0.00 | 0.00 | 0.00 | 61 | 1027.2 |
| 20260509202232 | 12 | 58 | 6.4 | 9.7 | 0.00 | 0.00 | 0.00 | 61 | 1027.1 |
| 20260509201726 | 12 | 38 | 8.0 | 8.0 | 0.00 | 0.00 | 0.00 | 62 | 1027.2 |
| 20260509201224 | 12 | 71 | 3.2 | 4.8 | 0.00 | 0.00 | 0.00 | 62 | 1027.2 |
| 20260509200720 | 12 | 19 | 0.0 | 6.4 | 0.00 | 0.00 | 0.00 | 62 | 1027.2 |
| 20260509200215 | 12 | 46 | 4.8 | 6.4 | 0.00 | 0.00 | 0.00 | 62 | 1027.0 |
| 20260509195711 | 12 | 85 | 4.8 | 8.0 | 0.00 | 0.00 | 0.00 | 62 | 1026.9 |
| 20260509195207 | 12 | 54 | 3.2 | 6.4 | 0.00 | 0.00 | 0.00 | 62 | 1026.9 |
| 20260509194706 | 12 | 72 | 3.2 | 6.4 | 0.00 | 0.00 | 0.00 | 62 | 1027.0 |
| 20260509194203 | 12 | 68 | 3.2 | 8.0 | 0.00 | 0.00 | 0.00 | 62 | 1027.0 |
| 20260509193700 | 12 | 39 | 3.2 | 6.4 | 0.00 | 0.00 | 0.00 | 62 | 1027.0 |
| 20260509193155 | 12 | 43 | 4.8 | 4.8 | 0.00 | 0.00 | 0.00 | 62 | 1026.9 |
| 20260509192652 | 12 | 24 | 4.8 | 6.4 | 0.00 | 0.00 | 0.00 | 62 | 1026.9 |
| 20260509192147 | 12 | 28 | 4.8 | 6.4 | 0.00 | 0.00 | 0.00 | 61 | 1026.9 |
| 20260509191647 | 12 | 39 | 4.8 | 8.0 | 0.00 | 0.00 | 0.00 | 61 | 1026.9 |
| 20260509191144 | 12 | 23 | 3.2 | 6.4 | 0.00 | 0.00 | 0.00 | 60 | 1027.0 |
| 20260509190640 | 13 | 21 | 4.8 | 4.8 | 0.00 | 0.00 | 0.00 | 59 | 1027.0 |
| 20260509190138 | 13 | 37 | 4.8 | 6.4 | 0.00 | 0.00 | 0.00 | 58 | 1027.0 |
| 20260509185635 | 13 | 37 | 8.0 | 8.0 | 0.00 | 0.00 | 0.00 | 57 | 1026.9 |
| 20260509185131 | 13 | 39 | 8.0 | 11.3 | 0.00 | 0.00 | 0.00 | 57 | 1027.1 |
| 20260509184629 | 13 | 45 | 11.3 | 14.5 | 0.00 | 0.00 | 0.00 | 56 | 1027.1 |
| 20260509184126 | 14 | 46 | 8.0 | 12.9 | 0.00 | 0.00 | 0.00 | 55 | 1026.9 |
| 20260509183622 | 14 | 49 | 9.7 | 16.1 | 0.00 | 0.00 | 0.00 | 55 | 1026.9 |
| 20260509183117 | 14 | 86 | 11.3 | 24.1 | 0.00 | 0.00 | 0.00 | 55 | 1027.0 |
| 20260509182613 | 13 | 80 | 9.7 | 12.9 | 0.00 | 0.00 | 0.00 | 55 | 1026.9 |
| 20260509182110 | 13 | 76 | 12.9 | 14.5 | 0.00 | 0.00 | 0.00 | 57 | 1027.0 |
| 20260509181609 | 12 | 61 | 6.4 | 8.0 | 0.00 | 0.00 | 0.00 | 59 | 1027.1 |
| 20260509181106 | 12 | 92 | 3.2 | 4.8 | 0.00 | 0.00 | 0.00 | 59 | 1027.1 |
| 20260509180602 | 12 | 88 | 6.4 | 6.4 | 0.00 | 0.00 | 0.00 | 59 | 1027.2 |
| 20260509180059 | 12 | 98 | 1.6 | 6.4 | 0.00 | 0.00 | 0.00 | 60 | 1027.3 |
| 20260509175554 | 12 | 67 | 3.2 | 4.8 | 0.00 | 0.00 | 0.00 | 61 | 1027.1 |
| 20260509175052 | 11 | 36 | 3.2 | 3.2 | 0.00 | 0.00 | 0.00 | 61 | 1027.1 |
| 20260509174548 | 12 | 61 | 0.0 | 3.2 | 0.00 | 0.00 | 0.00 | 61 | 1027.4 |
| 20260509174044 | 12 | 7 | 0.0 | 1.6 | 0.00 | 0.00 | 0.00 | 59 | 1027.2 |
| 20260509173543 | 12 | 49 | 1.6 | 6.4 | 0.00 | 0.00 | 0.00 | 59 | 1027.2 |
| 20260509173040 | 12 | 19 | 3.2 | 4.8 | 0.00 | 0.00 | 0.00 | 59 | 1027.4 |
| 20260509172537 | 12 | 36 | 3.2 | 4.8 | 0.00 | 0.00 | 0.00 | 59 | 1027.4 |
| 20260509172033 | 12 | 39 | 3.2 | 3.2 | 0.00 | 0.00 | 0.00 | 59 | 1027.4 |
| 20260509171529 | 12 | 2 | 1.6 | 3.2 | 0.00 | 0.00 | 0.00 | 60 | 1027.3 |
| 20260509171026 | 11 | 1 | 0.0 | 1.6 | 0.00 | 0.00 | 0.00 | 61 | 1027.4 |
| 20260509170521 | 11 | 34 | 0.0 | 0.0 | 0.00 | 0.00 | 0.00 | 61 | 1027.3 |
| 20260509170017 | 12 | 57 | 0.0 | 1.6 | 0.00 | 0.00 | 0.00 | 59 | 1027.4 |
| 20260509165516 | 12 | 205 | 0.0 | 1.6 | 0.00 | 0.00 | 0.00 | 57 | 1027.4 |
| 20260509165012 | 13 | 89 | 0.0 | 4.8 | 0.00 | 0.00 | 0.00 | 55 | 1027.4 |
| 20260509164508 | 13 | 93 | 3.2 | 6.4 | 0.00 | 0.00 | 0.00 | 54 | 1027.5 |
| 20260509164004 | 13 | 78 | 3.2 | 8.0 | 0.00 | 0.00 | 0.00 | 54 | 1027.2 |
| 20260509163502 | 13 | 99 | 4.8 | 8.0 | 0.00 | 0.00 | 0.00 | 53 | 1027.3 |
| 20260509163001 | 13 | 81 | 4.8 | 11.3 | 0.00 | 0.00 | 0.00 | 53 | 1027.3 |
| 20260509162500 | 13 | 92 | 8.0 | 8.0 | 0.00 | 0.00 | 0.00 | 52 | 1027.5 |
| 20260509161955 | 14 | 87 | 8.0 | 11.3 | 0.00 | 0.00 | 0.00 | 52 | 1027.4 |
| 20260509161452 | 14 | 99 | 6.4 | 12.9 | 0.00 | 0.00 | 0.00 | 51 | 1027.5 |
| 20260509160947 | 14 | 96 | 8.0 | 11.3 | 0.00 | 0.00 | 0.00 | 52 | 1027.3 |
| 20260509160443 | 13 | 88 | 11.3 | 12.9 | 0.00 | 0.00 | 0.00 | 52 | 1027.4 |
| 20260509155938 | 13 | 92 | 8.0 | 11.3 | 0.00 | 0.00 | 0.00 | 53 | 1027.4 |
| 20260509155435 | 13 | 95 | 8.0 | 11.3 | 0.00 | 0.00 | 0.00 | 53 | 1027.6 |
| 20260509154932 | 13 | 85 | 4.8 | 9.7 | 0.00 | 0.00 | 0.00 | 54 | 1027.6 |
| 20260509154428 | 13 | 94 | 4.8 | 8.0 | 0.00 | 0.00 | 0.00 | 52 | 1027.6 |
| 20260509153925 | 13 | 93 | 4.8 | 8.0 | 0.00 | 0.00 | 0.00 | 51 | 1027.7 |
| 20260509153422 | 13 | 77 | 8.0 | 9.7 | 0.00 | 0.00 | 0.00 | 52 | 1027.7 |
| 20260509152919 | 13 | 93 | 8.0 | 9.7 | 0.00 | 0.00 | 0.00 | 52 | 1027.7 |
| 20260509152415 | 13 | 85 | 6.4 | 9.7 | 0.00 | 0.00 | 0.00 | 53 | 1027.7 |
| 20260509151912 | 13 | 95 | 6.4 | 9.7 | 0.00 | 0.00 | 0.00 | 52 | 1027.8 |
| 20260509151408 | 13 | 98 | 6.4 | 9.7 | 0.00 | 0.00 | 0.00 | 52 | 1027.8 |
| 20260509150907 | 13 | 85 | 6.4 | 11.3 | 0.00 | 0.00 | 0.00 | 52 | 1027.8 |
| 20260509150404 | 13 | 87 | 6.4 | 8.0 | 0.00 | 0.00 | 0.00 | 51 | 1028.0 |
| 20260509145902 | 13 | 95 | 9.7 | 9.7 | 0.00 | 0.00 | 0.00 | 52 | 1027.9 |
| 20260509145401 | 13 | 87 | 9.7 | 9.7 | 0.00 | 0.00 | 0.00 | 52 | 1028.1 |
| 20260509144857 | 13 | 98 | 8.0 | 9.7 | 0.00 | 0.00 | 0.00 | 52 | 1027.8 |
| 20260509144354 | 13 | 94 | 6.4 | 9.7 | 0.00 | 0.00 | 0.00 | 52 | 1028.1 |
| 20260509143851 | 13 | 96 | 6.4 | 8.0 | 0.00 | 0.00 | 0.00 | 52 | 1028.0 |
| 20260509143349 | 14 | 100 | 6.4 | 9.7 | 0.00 | 0.00 | 0.00 | 51 | 1027.9 |
| 20260509142845 | 14 | 87 | 8.0 | 9.7 | 0.00 | 0.00 | 0.00 | 51 | 1028.0 |
| 20260509142341 | 14 | 104 | 6.4 | 11.3 | 0.00 | 0.00 | 0.00 | 51 | 1028.3 |
| 20260509141837 | 14 | 99 | 8.0 | 9.7 | 0.00 | 0.00 | 0.00 | 51 | 1027.9 |
| 20260509141334 | 14 | 99 | 9.7 | 9.7 | 0.00 | 0.00 | 0.00 | 51 | 1028.2 |
| 20260509140830 | 14 | 89 | 4.8 | 8.0 | 0.00 | 0.00 | 0.00 | 50 | 1028.2 |
| 20260509140328 | 15 | 96 | 8.0 | 9.7 | 0.00 | 0.00 | 0.00 | 49 | 1028.1 |
| 20260509135826 | 15 | 101 | 6.4 | 11.3 | 0.00 | 0.00 | 0.00 | 48 | 1028.2 |
| 20260509135323 | 15 | 84 | 8.0 | 9.7 | 0.00 | 0.00 | 0.00 | 48 | 1028.0 |
| 20260509134820 | 15 | 86 | 6.4 | 9.7 | 0.00 | 0.00 | 0.00 | 47 | 1027.9 |
| 20260509134317 | 15 | 97 | 8.0 | 11.3 | 0.00 | 0.00 | 0.00 | 48 | 1028.1 |
| 20260509133814 | 15 | 94 | 11.3 | 11.3 | 0.00 | 0.00 | 0.00 | 47 | 1028.0 |
| 20260509133311 | 15 | 87 | 11.3 | 12.9 | 0.00 | 0.00 | 0.00 | 48 | 1027.9 |
| 20260509132809 | 15 | 93 | 8.0 | 11.3 | 0.00 | 0.00 | 0.00 | 49 | 1028.0 |
| 20260509132308 | 15 | 92 | 8.0 | 11.3 | 0.00 | 0.00 | 0.00 | 49 | 1028.0 |
| 20260509131804 | 15 | 93 | 11.3 | 12.9 | 0.00 | 0.00 | 0.00 | 50 | 1027.8 |
| 20260509131301 | 15 | 97 | 9.7 | 12.9 | 0.00 | 0.00 | 0.00 | 50 | 1027.9 |
| 20260509130757 | 15 | 95 | 6.4 | 11.3 | 0.00 | 0.00 | 0.00 | 51 | 1028.0 |
| 20260509130253 | 15 | 102 | 8.0 | 11.3 | 0.00 | 0.00 | 0.00 | 51 | 1028.0 |
| 20260509125749 | 15 | 112 | 6.4 | 11.3 | 0.00 | 0.00 | 0.00 | 51 | 1028.0 |
| 20260509125247 | 15 | 108 | 8.0 | 9.7 | 0.00 | 0.00 | 0.00 | 52 | 1028.0 |
| 20260509124743 | 15 | 100 | 9.7 | 12.9 | 0.00 | 0.00 | 0.00 | 51 | 1027.9 |
| 20260509124239 | 15 | 104 | 11.3 | 12.9 | 0.00 | 0.00 | 0.00 | 51 | 1027.9 |
| 20260509123738 | 15 | 102 | 9.7 | 9.7 | 0.00 | 0.00 | 0.00 | 50 | 1027.8 |
| 20260509123235 | 15 | 87 | 6.4 | 12.9 | 0.00 | 0.00 | 0.00 | 50 | 1027.8 |
| 20260509122730 | 15 | 94 | 9.7 | 11.3 | 0.00 | 0.00 | 0.00 | 50 | 1027.7 |
| 20260509122227 | 15 | 105 | 8.0 | 11.3 | 0.00 | 0.00 | 0.00 | 50 | 1027.7 |
| 20260509121724 | 15 | 102 | 11.3 | 11.3 | 0.00 | 0.00 | 0.00 | 50 | 1027.7 |
| 20260509121222 | 15 | 93 | 8.0 | 9.7 | 0.00 | 0.00 | 0.00 | 51 | 1027.6 |
| 20260509120720 | 15 | 97 | 6.4 | 11.3 | 0.00 | 0.00 | 0.00 | 51 | 1027.6 |
| 20260509120217 | 15 | 98 | 8.0 | 8.0 | 0.00 | 0.00 | 0.00 | 51 | 1027.6 |
| 20260509115715 | 15 | 95 | 8.0 | 9.7 | 0.00 | 0.00 | 0.00 | 51 | 1027.6 |
| 20260509115212 | 15 | 91 | 8.0 | 11.3 | 0.00 | 0.00 | 0.00 | 51 | 1027.6 |
| 20260509114710 | 15 | 100 | 8.0 | 8.0 | 0.00 | 0.00 | 0.00 | 52 | 1027.5 |
| 20260509114209 | 15 | 96 | 6.4 | 11.3 | 0.00 | 0.00 | 0.00 | 52 | 1027.5 |
| 20260509113707 | 16 | 108 | 6.4 | 8.0 | 0.00 | 0.00 | 0.00 | 52 | 1027.5 |
| 20260509113204 | 16 | 106 | 8.0 | 9.7 | 0.00 | 0.00 | 0.00 | 51 | 1027.2 |
| 20260509112700 | 15 | 108 | 8.0 | 9.7 | 0.00 | 0.00 | 0.00 | 52 | 1027.4 |
| 20260509112157 | 16 | 111 | 8.0 | 8.0 | 0.00 | 0.00 | 0.00 | 52 | 1027.4 |
| 20260509111654 | 16 | 107 | 8.0 | 8.0 | 0.00 | 0.00 | 0.00 | 52 | 1027.4 |
| 20260509111151 | 16 | 103 | 6.4 | 8.0 | 0.00 | 0.00 | 0.00 | 51 | 1027.7 |
| 20260509110648 | 16 | 96 | 8.0 | 8.0 | 0.00 | 0.00 | 0.00 | 51 | 1027.4 |
| 20260509110145 | 16 | 109 | 6.4 | 8.0 | 0.00 | 0.00 | 0.00 | 51 | 1027.4 |
| 20260509105643 | 16 | 104 | 4.8 | 6.4 | 0.00 | 0.00 | 0.00 | 51 | 1027.6 |
| 20260509105141 | 16 | 113 | 6.4 | 8.0 | 0.00 | 0.00 | 0.00 | 51 | 1027.5 |
| 20260509104638 | 16 | 112 | 4.8 | 6.4 | 0.00 | 0.00 | 0.00 | 53 | 1027.5 |
| 20260509104134 | 16 | 117 | 3.2 | 4.8 | 0.00 | 0.00 | 0.00 | 53 | 1027.4 |
| 20260509103632 | 16 | 138 | 4.8 | 4.8 | 0.00 | 0.00 | 0.00 | 54 | 1027.6 |
| 20260509103130 | 16 | 161 | 1.6 | 3.2 | 0.00 | 0.00 | 0.00 | 54 | 1027.6 |
| 20260509102627 | 16 | 160 | 1.6 | 3.2 | 0.00 | 0.00 | 0.00 | 53 | 1027.4 |
| 20260509102124 | 17 | 159 | 1.6 | 3.2 | 0.00 | 0.00 | 0.00 | 52 | 1027.4 |
| 20260509101620 | 17 | 140 | 3.2 | 3.2 | 0.00 | 0.00 | 0.00 | 50 | 1027.4 |
| 20260509101117 | 17 | 133 | 3.2 | 3.2 | 0.00 | 0.00 | 0.00 | 49 | 1027.3 |
| 20260509100614 | 18 | 110 | 4.8 | 4.8 | 0.00 | 0.00 | 0.00 | 46 | 1027.3 |
| 20260509100112 | 18 | 107 | 4.8 | 4.8 | 0.00 | 0.00 | 0.00 | 44 | 1027.4 |
| 20260509095608 | 19 | 103 | 4.8 | 4.8 | 0.00 | 0.00 | 0.00 | 44 | 1027.3 |
| 20260509095106 | 19 | 99 | 3.2 | 4.8 | 0.00 | 0.00 | 0.00 | 43 | 1027.4 |
| 20260509094601 | 20 | 121 | 3.2 | 4.8 | 0.00 | 0.00 | 0.00 | 41 | 1027.2 |
| 20260509094059 | 20 | 114 | 4.8 | 6.4 | 0.00 | 0.00 | 0.00 | 40 | 1027.1 |
| 20260509093557 | 20 | 110 | 4.8 | 6.4 | 0.00 | 0.00 | 0.00 | 40 | 1027.3 |
| 20260509093054 | 20 | 117 | 4.8 | 6.4 | 0.00 | 0.00 | 0.00 | 40 | 1027.1 |
| 20260509092552 | 21 | 106 | 4.8 | 8.0 | 0.00 | 0.00 | 0.00 | 39 | 1027.1 |
| 20260509092051 | 21 | 114 | 6.4 | 8.0 | 0.00 | 0.00 | 0.00 | 39 | 1027.1 |
| 20260509091548 | 21 | 106 | 4.8 | 8.0 | 0.00 | 0.00 | 0.00 | 38 | 1027.2 |
| 20260509091044 | 21 | 113 | 4.8 | 6.4 | 0.00 | 0.00 | 0.00 | 37 | 1027.3 |
| 20260509090542 | 22 | 94 | 4.8 | 6.4 | 0.00 | 0.00 | 0.00 | 36 | 1027.5 |
| 20260509090039 | 22 | 101 | 3.2 | 6.4 | 0.00 | 0.00 | 0.00 | 35 | 1027.1 |
| 20260509085536 | 22 | 75 | 3.2 | 6.4 | 0.00 | 0.00 | 0.00 | 34 | 1027.1 |
| 20260509085032 | 22 | 70 | 6.4 | 9.7 | 0.00 | 0.00 | 0.00 | 32 | 1027.1 |
| 20260509084529 | 22 | 66 | 4.8 | 8.0 | 0.00 | 0.00 | 0.00 | 33 | 1027.0 |
| 20260509084026 | 23 | 70 | 8.0 | 8.0 | 0.00 | 0.00 | 0.00 | 32 | 1027.1 |
| 20260509083524 | 23 | 81 | 6.4 | 8.0 | 0.00 | 0.00 | 0.00 | 32 | 1027.2 |
| 20260509083020 | 23 | 41 | 8.0 | 8.0 | 0.00 | 0.00 | 0.00 | 32 | 1027.0 |
| 20260509082518 | 23 | 38 | 4.8 | 8.0 | 0.00 | 0.00 | 0.00 | 31 | 1027.1 |
| 20260509082015 | 23 | 70 | 4.8 | 8.0 | 0.00 | 0.00 | 0.00 | 31 | 1027.2 |
| 20260509081512 | 23 | 91 | 6.4 | 11.3 | 0.00 | 0.00 | 0.00 | 32 | 1027.0 |
| 20260509081009 | 23 | 38 | 6.4 | 9.7 | 0.00 | 0.00 | 0.00 | 32 | 1027.0 |
| 20260509080507 | 23 | 27 | 9.7 | 16.1 | 0.00 | 0.00 | 0.00 | 32 | 1027.1 |
| 20260509080005 | 23 | 51 | 8.0 | 8.0 | 0.00 | 0.00 | 0.00 | 30 | 1027.1 |
| 20260509075502 | 23 | 66 | 4.8 | 8.0 | 0.00 | 0.00 | 0.00 | 30 | 1027.1 |
| 20260509074959 | 23 | 98 | 8.0 | 11.3 | 0.00 | 0.00 | 0.00 | 31 | 1026.8 |
| 20260509074457 | 23 | 43 | 4.8 | 14.5 | 0.00 | 0.00 | 0.00 | 32 | 1026.9 |
| 20260509073953 | 23 | 64 | 4.8 | 8.0 | 0.00 | 0.00 | 0.00 | 31 | 1027.0 |
| 20260509073449 | 23 | 52 | 3.2 | 9.7 | 0.00 | 0.00 | 0.00 | 31 | 1027.0 |
| 20260509072946 | 23 | 43 | 14.5 | 20.9 | 0.00 | 0.00 | 0.00 | 32 | 1027.0 |
| 20260509072443 | 23 | 96 | 11.3 | 12.9 | 0.00 | 0.00 | 0.00 | 31 | 1026.9 |